This is the latest recevied weather packets stored in our database for station/object W0BJ. If no packets are shown the sender has not sent any weather packets the latest 10 day(s).
| Time | Temp. | Humidity | Pressure | Rain* | Wind** | Luminosity | Snow |
|---|---|---|---|---|---|---|---|
| 1777767799 | 14.44° C | 45% | 1021.2 hPa | 0 mm | - | - | - |
| 1777767744 | 14.44° C | 45% | 1021.1 hPa | 0 mm | - | - | - |
| 1777767144 | 15° C | 43% | 1021.2 hPa | 0 mm | - | - | - |
| 1777766897 | 15° C | 40% | 1021 hPa | 0 mm | - | - | - |
| 1777766543 | 15.56° C | 37% | 1021.1 hPa | 0 mm | - | - | - |
| 1777765999 | 15.56° C | 37% | 1021 hPa | 0 mm | - | - | - |
| 1777765944 | 15.56° C | 36% | 1021 hPa | 0 mm | - | - | - |
| 1777765344 | 16.11° C | 37% | 1021.1 hPa | 0 mm | - | - | - |
| 1777765098 | 16.67° C | 33% | 1021.1 hPa | 0 mm | - | - | - |
| 1777764743 | 16.67° C | 35% | 1021.1 hPa | 0 mm | - | - | - |
| 1777764199 | 17.22° C | 36% | 1021.1 hPa | 0 mm | - | - | - |
| 1777764145 | 17.22° C | 34% | 1021.1 hPa | 0 mm | - | - | - |
| 1777763545 | 17.22° C | 36% | 1021.2 hPa | 0 mm | - | - | - |
| 1777763298 | 17.22° C | 33% | 1021.1 hPa | 0 mm | - | - | - |
| 1777762944 | 17.78° C | 34% | 1021.2 hPa | 0 mm | - | - | - |
| 1777762398 | 17.78° C | 34% | 1021.3 hPa | 0 mm | - | - | - |
| 1777762343 | 17.78° C | 33% | 1021.2 hPa | 0 mm | - | - | - |
| 1777761743 | 17.78° C | 34% | 1021.3 hPa | 0 mm | - | - | - |
| 1777761499 | 17.78° C | 34% | 1021.2 hPa | 0 mm | - | - | - |
| 1777761144 | 17.22° C | 35% | 1021.2 hPa | 0 mm | - | - | - |
| 1777760598 | 17.78° C | 33% | 1021.1 hPa | 0 mm | - | - | - |
| 1777760544 | 17.78° C | 33% | 1021.2 hPa | 0 mm | - | - | - |
| 1777759944 | 18.33° C | 33% | 1021.2 hPa | 0 mm | - | - | - |
| 1777759698 | 18.33° C | 33% | 1021.2 hPa | 0 mm | - | - | - |
| 1777759345 | 18.33° C | 33% | 1021.3 hPa | 0 mm | - | - | - |
* Rain latest hour (hover to see other rain measurements)
** Current wind speed in m/s (hover to see current wind gust speed)